Time,TemperatureF,DewpointF,PressureIn,WindDirection,WindDirectionDegrees,WindSpeedMPH,WindSpeedGustMPH,Humidity,HourlyPrecipIn,Conditions,Clouds,dailyrainin,SoftwareType,DateUTC
2013-03-07 00:01:00,27.6,22.5,30.32,SE,134,3.8,6.9,81,0.00,CLR,SKC,0.00,WeatherDisplay:10.37,2013-03-07 06:01:00,
2013-03-07 00:06:00,27.5,22.4,30.33,SE,128,3.0,5.8,81,0.00,CLR,SKC,0.00,WeatherDisplay:10.37,2013-03-07 06:06:00,
2013-03-07 00:11:00,27.4,22.3,30.33,ESE,122,4.6,8.1,81,0.00,CLR,SKC,0.00,WeatherDisplay:10.37,2013-03-07 06:11:00,
2013-03-07 00:16:00,27.4,22.3,30.34,SE,132,1.9,4.6,81,0.00,CLR,SKC,0.00,WeatherDisplay:10.37,2013-03-07 06:16:00,
2013-03-07 00:21:00,27.3,22.2,30.34,ESE,118,4.1,5.8,81,0.00,CLR,SKC,0.00,WeatherDisplay:10.37,2013-03-07 06:21:00,
2013-03-07 00:26:00,27.3,22.2,30.34,SE,124,3.4,5.8,81,0.00,CLR,SKC,0.00,WeatherDisplay:10.37,2013-03-07 06:26:00,
2013-03-07 00:31:00,27.2,22.1,30.34,ESE,121,2.7,4.6,81,0.00,CLR,SKC,0.00,WeatherDisplay:10.37,2013-03-07 06:31:00,
2013-03-07 00:36:00,27.1,22.0,30.34,ESE,118,2.3,6.0,81,0.00,CLR,SKC,0.00,WeatherDisplay:10.37,2013-03-07 06:36:00,
2013-03-07 00:41:00,27.0,22.2,30.33,ESE,112,3.4,4.6,82,0.00,CLR,SKC,0.00,WeatherDisplay:10.37,2013-03-07 06:41:00,
2013-03-07 00:46:00,27.0,22.2,30.33,East,96,4.7,9.2,82,0.00,CLR,SKC,0.00,WeatherDisplay:10.37,2013-03-07 06:46:00,
2013-03-07 00:51:00,26.9,22.1,30.33,SE,128,4.1,5.8,82,0.00,CLR,SKC,0.00,WeatherDisplay:10.37,2013-03-07 06:51:00,
2013-03-07 00:56:00,26.8,22.0,30.33,East,101,6.1,8.1,82,0.00,CLR,SKC,0.00,WeatherDisplay:10.37,2013-03-07 06:56:00,
2013-03-07 01:01:00,26.8,22.0,30.33,ESE,122,5.5,9.2,82,0.00,CLR,SKC,0.00,WeatherDisplay:10.37,2013-03-07 07:01:00,
2013-03-07 01:06:00,26.7,21.9,30.33,ESE,112,5.4,9.0,82,0.00,CLR,SKC,0.00,WeatherDisplay:10.37,2013-03-07 07:06:00,
2013-03-07 01:11:00,26.6,21.8,30.32,SE,125,7.4,10.0,82,0.00,CLR,SKC,0.00,WeatherDisplay:10.37,2013-03-07 07:11:00,
2013-03-07 01:16:00,26.6,21.8,30.33,SE,136,3.3,4.6,82,0.00,CLR,SKC,0.00,WeatherDisplay:10.37,2013-03-07 07:16:00,
2013-03-07 01:21:00,26.5,21.7,30.32,East,89,6.4,9.2,82,0.00,CLR,SKC,0.00,WeatherDisplay:10.37,2013-03-07 07:21:00,
2013-03-07 01:26:00,26.4,21.7,30.32,ESE,111,4.8,8.1,82,0.00,CLR,SKC,0.00,WeatherDisplay:10.37,2013-03-07 07:26:00,
2013-03-07 01:31:00,26.3,21.8,30.31,SE,143,4.2,5.8,83,0.00,CLR,SKC,0.00,WeatherDisplay:10.37,2013-03-07 07:31:00,
2013-03-07 01:36:00,26.3,21.8,30.32,SE,143,4.3,6.9,83,0.00,CLR,SKC,0.00,WeatherDisplay:10.37,2013-03-07 07:36:00,
2013-03-07 01:41:00,26.3,21.8,30.32,ESE,112,6.3,11.5,83,0.00,CLR,SKC,0.00,WeatherDisplay:10.37,2013-03-07 07:41:00,
2013-03-07 01:46:00,26.3,21.6,30.32,ESE,114,4.1,8.1,82,0.00,CLR,SKC,0.00,WeatherDisplay:10.37,2013-03-07 07:46:00,
2013-03-07 01:51:00,26.2,21.5,30.32,SE,136,4.0,6.9,82,0.00,CLR,SKC,0.00,WeatherDisplay:10.37,2013-03-07 07:51:00,
2013-03-07 01:57:00,26.2,21.5,30.32,SE,124,5.9,11.5,82,0.00,CLR,SKC,0.00,WeatherDisplay:10.37,2013-03-07 07:57:00,
2013-03-07 02:02:00,26.1,21.4,30.32,ESE,102,4.8,6.9,82,0.00,CLR,SKC,0.00,WeatherDisplay:10.37,2013-03-07 08:02:00,
2013-03-07 02:07:00,26.1,21.4,30.32,ESE,118,3.9,5.0,82,0.00,CLR,SKC,0.00,WeatherDisplay:10.37,2013-03-07 08:07:00,
2013-03-07 02:12:00,26.0,21.3,30.32,SE,146,4.8,6.9,82,0.00,CLR,SKC,0.00,WeatherDisplay:10.37,2013-03-07 08:12:00,
2013-03-07 02:17:00,26.0,21.3,30.32,East,79,4.3,8.1,82,0.00,CLR,SKC,0.00,WeatherDisplay:10.37,2013-03-07 08:17:00,
2013-03-07 02:22:00,26.0,21.3,30.32,ESE,114,3.0,5.8,82,0.00,CLR,SKC,0.00,WeatherDisplay:10.37,2013-03-07 08:22:00,
2013-03-07 02:27:00,25.9,21.2,30.32,SE,136,2.9,4.6,82,0.00,CLR,SKC,0.00,WeatherDisplay:10.37,2013-03-07 08:27:00,
2013-03-07 02:32:00,25.8,21.3,30.32,SE,125,3.8,3.8,83,0.00,CLR,SKC,0.00,WeatherDisplay:10.37,2013-03-07 08:32:00,
2013-03-07 02:37:00,25.7,21.3,30.31,SE,131,7.2,8.0,83,0.00,CLR,SKC,0.00,WeatherDisplay:10.37,2013-03-07 08:37:00,
2013-03-07 02:42:00,25.7,21.3,30.31,SSE,155,5.4,6.9,83,0.00,CLR,SKC,0.00,WeatherDisplay:10.37,2013-03-07 08:42:00,
2013-03-07 02:47:00,25.7,21.3,30.30,ESE,117,6.9,11.5,83,0.00,CLR,SKC,0.00,WeatherDisplay:10.37,2013-03-07 08:47:00,
2013-03-07 02:52:00,25.7,21.3,30.30,SE,140,8.6,11.5,83,0.00,CLR,SKC,0.00,WeatherDisplay:10.37,2013-03-07 08:52:00,
2013-03-07 02:57:00,25.6,21.2,30.30,ESE,118,7.0,10.4,83,0.00,CLR,SKC,0.00,WeatherDisplay:10.37,2013-03-07 08:57:00,
2013-03-07 03:03:00,25.6,21.2,30.30,ESE,103,8.5,11.5,83,0.00,CLR,SKC,0.00,WeatherDisplay:10.37,2013-03-07 09:03:00,
2013-03-07 03:08:00,25.5,21.1,30.30,SE,124,6.3,11.5,83,0.00,CLR,SKC,0.00,WeatherDisplay:10.37,2013-03-07 09:08:00,
2013-03-07 03:13:00,25.5,21.1,30.30,ESE,110,5.0,9.2,83,0.00,CLR,SKC,0.00,WeatherDisplay:10.37,2013-03-07 09:13:00,
2013-03-07 03:18:00,25.4,21.0,30.30,East,98,4.5,6.9,83,0.00,CLR,SKC,0.00,WeatherDisplay:10.37,2013-03-07 09:18:00,
2013-03-07 03:23:00,25.4,21.0,30.30,SE,124,4.7,5.8,83,0.00,CLR,SKC,0.00,WeatherDisplay:10.37,2013-03-07 09:23:00,
2013-03-07 03:28:00,25.4,21.0,30.29,SE,142,6.0,6.0,83,0.00,CLR,SKC,0.00,WeatherDisplay:10.37,2013-03-07 09:28:00,
2013-03-07 03:33:00,25.4,21.0,30.29,ESE,122,4.9,6.9,83,0.00,CLR,SKC,0.00,WeatherDisplay:10.37,2013-03-07 09:33:00,
2013-03-07 03:38:00,25.4,21.0,30.29,East,94,5.2,6.9,83,0.00,CLR,SKC,0.00,WeatherDisplay:10.37,2013-03-07 09:38:00,
2013-03-07 03:43:00,25.4,21.0,30.30,SE,124,5.0,5.8,83,0.00,CLR,SKC,0.00,WeatherDisplay:10.37,2013-03-07 09:43:00,
2013-03-07 03:48:00,25.4,20.7,30.29,ESE,103,4.2,5.8,82,0.00,CLR,SKC,0.00,WeatherDisplay:10.37,2013-03-07 09:48:00,
2013-03-07 03:53:00,25.4,20.7,30.29,East,80,5.4,6.9,82,0.00,CLR,SKC,0.00,WeatherDisplay:10.37,2013-03-07 09:53:00,
2013-03-07 03:58:00,25.4,20.7,30.29,ESE,111,4.8,8.1,82,0.00,CLR,SKC,0.00,WeatherDisplay:10.37,2013-03-07 09:58:00,
2013-03-07 04:03:00,25.3,20.6,30.29,ESE,114,5.0,8.0,82,0.00,CLR,SKC,0.00,WeatherDisplay:10.37,2013-03-07 10:03:00,
2013-03-07 04:08:00,25.3,20.6,30.29,SE,131,5.4,8.1,82,0.00,CLR,SKC,0.00,WeatherDisplay:10.37,2013-03-07 10:08:00,
2013-03-07 04:13:00,25.3,20.6,30.29,SSE,148,3.1,4.0,82,0.00,CLR,SKC,0.00,WeatherDisplay:10.37,2013-03-07 10:13:00,
2013-03-07 04:18:00,25.3,20.6,30.29,ESE,121,6.0,8.1,82,0.00,CLR,SKC,0.00,WeatherDisplay:10.37,2013-03-07 10:18:00,
2013-03-07 04:24:00,25.3,20.6,30.29,SE,136,6.2,11.5,82,0.00,CLR,SKC,0.00,WeatherDisplay:10.37,2013-03-07 10:24:00,
2013-03-07 04:28:00,25.3,20.6,30.29,SE,136,3.7,6.0,82,0.00,CLR,SKC,0.00,WeatherDisplay:10.37,2013-03-07 10:28:00,
2013-03-07 04:34:00,25.3,20.6,30.28,SE,139,9.3,12.7,82,0.00,CLR,SKC,0.00,WeatherDisplay:10.37,2013-03-07 10:34:00,
2013-03-07 04:39:00,25.2,20.5,30.29,ESE,117,6.7,9.2,82,0.00,CLR,SKC,0.00,WeatherDisplay:10.37,2013-03-07 10:39:00,
2013-03-07 04:44:00,25.2,20.5,30.28,ESE,117,5.0,7.0,82,0.00,CLR,SKC,0.00,WeatherDisplay:10.37,2013-03-07 10:44:00,
2013-03-07 04:49:00,25.2,20.5,30.29,ESE,105,6.5,12.7,82,0.00,CLR,SKC,0.00,WeatherDisplay:10.37,2013-03-07 10:49:00,
2013-03-07 04:54:00,25.2,20.5,30.28,SE,143,7.1,11.5,82,0.00,CLR,SKC,0.00,WeatherDisplay:10.37,2013-03-07 10:54:00,
2013-03-07 04:59:00,25.2,20.5,30.28,SE,128,8.3,10.0,82,0.00,CLR,SKC,0.00,WeatherDisplay:10.37,2013-03-07 10:59:00,
2013-03-07 05:04:00,25.2,20.5,30.28,SE,130,5.9,9.2,82,0.00,CLR,SKC,0.00,WeatherDisplay:10.37,2013-03-07 11:04:00,
2013-03-07 05:09:00,25.1,20.4,30.28,SE,129,5.1,6.0,82,0.00,CLR,SKC,0.00,WeatherDisplay:10.37,2013-03-07 11:09:00,
2013-03-07 05:14:00,25.1,20.4,30.28,SE,134,2.8,5.0,82,0.00,CLR,SKC,0.00,WeatherDisplay:10.37,2013-03-07 11:14:00,
2013-03-07 05:19:00,25.1,20.4,30.28,SSE,148,4.8,6.0,82,0.00,CLR,SKC,0.00,WeatherDisplay:10.37,2013-03-07 11:19:00,
2013-03-07 05:24:00,25.0,20.3,30.28,ESE,117,6.2,6.2,82,0.00,CLR,SKC,0.00,WeatherDisplay:10.37,2013-03-07 11:24:00,
2013-03-07 05:30:00,24.9,20.2,30.28,ESE,120,7.1,10.4,82,0.00,CLR,SKC,0.00,WeatherDisplay:10.37,2013-03-07 11:30:00,
2013-03-07 05:35:00,24.8,20.4,30.28,East,98,5.7,6.9,83,0.00,CLR,SKC,0.00,WeatherDisplay:10.37,2013-03-07 11:35:00,
2013-03-07 05:40:00,24.8,20.4,30.29,ESE,110,6.3,8.1,83,0.00,CLR,SKC,0.00,WeatherDisplay:10.37,2013-03-07 11:40:00,
2013-03-07 05:45:00,24.7,20.3,30.28,East,97,7.3,10.4,83,0.00,CLR,SKC,0.00,WeatherDisplay:10.37,2013-03-07 11:45:00,
2013-03-07 05:50:00,24.7,20.3,30.29,ESE,114,7.4,10.0,83,0.00,CLR,SKC,0.00,WeatherDisplay:10.37,2013-03-07 11:50:00,
2013-03-07 05:55:00,24.6,20.2,30.28,SE,136,5.8,8.1,83,0.00,CLR,SKC,0.00,WeatherDisplay:10.37,2013-03-07 11:55:00,
2013-03-07 06:00:00,24.6,20.2,30.29,SE,125,7.2,11.0,83,0.00,CLR,SKC,0.00,WeatherDisplay:10.37,2013-03-07 12:00:00,
2013-03-07 06:05:00,24.5,20.1,30.29,SE,128,7.1,9.0,83,0.00,CLR,SKC,0.00,WeatherDisplay:10.37,2013-03-07 12:05:00,
2013-03-07 06:10:00,24.4,20.0,30.30,ESE,113,3.7,9.2,83,0.00,CLR,SKC,0.00,WeatherDisplay:10.37,2013-03-07 12:10:00,
2013-03-07 06:15:00,24.4,20.0,30.29,SE,124,6.2,8.1,83,0.00,CLR,SKC,0.00,WeatherDisplay:10.37,2013-03-07 12:15:00,
2013-03-07 06:20:00,24.3,19.9,30.30,SE,141,4.6,5.8,83,0.00,CLR,SKC,0.00,WeatherDisplay:10.37,2013-03-07 12:20:00,
2013-03-07 06:25:00,24.2,19.8,30.30,SE,136,5.1,8.1,83,0.00,CLR,SKC,0.00,WeatherDisplay:10.37,2013-03-07 12:25:00,
2013-03-07 06:30:00,24.2,19.8,30.30,ESE,122,3.5,5.8,83,0.00,CLR,SKC,0.00,WeatherDisplay:10.37,2013-03-07 12:30:00,
2013-03-07 06:36:00,24.0,19.6,30.30,East,93,7.7,12.7,83,0.00,CLR,SKC,0.00,WeatherDisplay:10.37,2013-03-07 12:36:00,
2013-03-07 06:41:00,24.0,19.6,30.30,ESE,103,5.8,8.1,83,0.00,CLR,SKC,0.00,WeatherDisplay:10.37,2013-03-07 12:41:00,
2013-03-07 06:46:00,23.9,19.5,30.30,SE,136,5.1,7.0,83,0.00,CLR,SKC,0.00,WeatherDisplay:10.37,2013-03-07 12:46:00,
2013-03-07 06:51:00,23.9,19.5,30.30,ESE,117,6.7,10.4,83,0.00,CLR,SKC,0.00,WeatherDisplay:10.37,2013-03-07 12:51:00,
2013-03-07 06:56:00,23.9,19.5,30.30,SE,131,5.2,8.1,83,0.00,CLR,SKC,0.00,WeatherDisplay:10.37,2013-03-07 12:56:00,
2013-03-07 07:01:00,24.0,19.6,30.30,East,99,8.0,11.5,83,0.00,CLR,SKC,0.00,WeatherDisplay:10.37,2013-03-07 13:01:00,
2013-03-07 07:06:00,24.0,19.6,30.30,ESE,116,5.7,11.5,83,0.00,CLR,SKC,0.00,WeatherDisplay:10.37,2013-03-07 13:06:00,
2013-03-07 07:11:00,24.1,19.7,30.30,ESE,109,6.8,9.2,83,0.00,CLR,SKC,0.00,WeatherDisplay:10.37,2013-03-07 13:11:00,
2013-03-07 07:16:00,24.2,19.8,30.31,SSE,148,3.9,6.9,83,0.00,CLR,SKC,0.00,WeatherDisplay:10.37,2013-03-07 13:16:00,
2013-03-07 07:21:00,24.3,19.9,30.31,East,89,4.2,6.9,83,0.00,CLR,SKC,0.00,WeatherDisplay:10.37,2013-03-07 13:21:00,
2013-03-07 07:26:00,24.4,19.7,30.31,SE,132,5.8,9.2,82,0.00,CLR,SKC,0.00,WeatherDisplay:10.37,2013-03-07 13:26:00,
2013-03-07 07:32:00,24.4,19.7,30.31,ESE,113,10.0,13.8,82,0.00,CLR,SKC,0.00,WeatherDisplay:10.37,2013-03-07 13:32:00,
2013-03-07 07:37:00,24.5,19.8,30.31,ESE,115,8.8,11.5,82,0.00,CLR,SKC,0.00,WeatherDisplay:10.37,2013-03-07 13:37:00,
2013-03-07 07:43:00,24.6,19.9,30.31,ESE,121,9.3,11.5,82,0.00,CLR,SKC,0.00,WeatherDisplay:10.37,2013-03-07 13:43:00,
2013-03-07 07:48:00,24.7,20.0,30.31,ESE,116,6.6,10.4,82,0.00,CLR,SKC,0.00,WeatherDisplay:10.37,2013-03-07 13:48:00,
2013-03-07 07:53:00,24.9,20.2,30.31,SE,128,7.6,11.5,82,0.00,CLR,SKC,0.00,WeatherDisplay:10.37,2013-03-07 13:53:00,
2013-03-07 07:58:00,25.0,20.0,30.31,SE,129,7.3,11.5,81,0.00,CLR,SKC,0.00,WeatherDisplay:10.37,2013-03-07 13:58:00,
2013-03-07 08:03:00,25.3,20.3,30.31,ESE,122,11.7,18.4,81,0.00,CLR,SKC,0.00,WeatherDisplay:10.37,2013-03-07 14:03:00,
2013-03-07 08:08:00,25.6,20.6,30.31,SE,131,5.9,10.0,81,0.00,CLR,SKC,0.00,WeatherDisplay:10.37,2013-03-07 14:08:00,
2013-03-07 08:13:00,25.9,20.6,30.31,SE,129,9.1,10.4,80,0.00,CLR,SKC,0.00,WeatherDisplay:10.37,2013-03-07 14:13:00,
2013-03-07 08:18:00,26.1,20.8,30.31,SE,136,8.5,12.0,80,0.00,CLR,SKC,0.00,WeatherDisplay:10.37,2013-03-07 14:18:00,
2013-03-07 08:23:00,26.3,21.0,30.31,ESE,122,7.3,11.0,80,0.00,CLR,SKC,0.00,WeatherDisplay:10.37,2013-03-07 14:23:00,
2013-03-07 08:28:00,26.6,21.0,30.30,SE,131,7.9,12.7,79,0.00,CLR,SKC,0.00,WeatherDisplay:10.37,2013-03-07 14:28:00,
2013-03-07 08:33:00,26.7,21.1,30.30,ESE,121,8.1,13.0,79,0.00,CLR,SKC,0.00,WeatherDisplay:10.37,2013-03-07 14:33:00,
2013-03-07 08:38:00,26.7,20.8,30.30,ESE,105,8.8,11.5,78,0.00,CLR,SKC,0.00,WeatherDisplay:10.37,2013-03-07 14:38:00,
2013-03-07 08:44:00,26.9,21.3,30.30,East,93,6.7,11.5,79,0.00,CLR,SKC,0.00,WeatherDisplay:10.37,2013-03-07 14:44:00,
2013-03-07 08:49:00,27.2,21.2,30.30,ESE,115,9.3,13.0,78,0.00,CLR,SKC,0.00,WeatherDisplay:10.37,2013-03-07 14:49:00,
2013-03-07 08:54:00,27.6,21.3,30.30,SE,131,10.1,12.7,77,0.00,CLR,SKC,0.00,WeatherDisplay:10.37,2013-03-07 14:54:00,
2013-03-07 08:59:00,27.8,21.5,30.30,East,100,10.0,12.7,77,0.00,CLR,SKC,0.00,WeatherDisplay:10.37,2013-03-07 14:59:00,
2013-03-07 09:04:00,28.1,21.8,30.30,East,97,7.8,11.5,77,0.00,CLR,SKC,0.00,WeatherDisplay:10.37,2013-03-07 15:04:00,
2013-03-07 09:09:00,28.5,21.9,30.30,SE,128,9.5,16.1,76,0.00,CLR,SKC,0.00,WeatherDisplay:10.37,2013-03-07 15:09:00,
2013-03-07 09:14:00,28.8,22.2,30.30,ESE,121,10.1,14.0,76,0.00,CLR,SKC,0.00,WeatherDisplay:10.37,2013-03-07 15:14:00,
2013-03-07 09:19:00,29.2,22.6,30.29,ESE,111,8.8,12.0,76,0.00,CLR,SKC,0.00,WeatherDisplay:10.37,2013-03-07 15:19:00,
2013-03-07 09:24:00,29.5,22.2,30.29,ESE,105,9.1,16.1,74,0.00,CLR,SKC,0.00,WeatherDisplay:10.37,2013-03-07 15:24:00,
2013-03-07 09:29:00,29.8,22.5,30.29,ESE,113,5.9,8.1,74,0.00,CLR,SKC,0.00,WeatherDisplay:10.37,2013-03-07 15:29:00,
2013-03-07 09:34:00,29.8,22.2,30.29,East,97,6.9,11.5,73,0.00,CLR,SKC,0.00,WeatherDisplay:10.37,2013-03-07 15:34:00,
2013-03-07 09:39:00,30.1,22.8,30.28,SE,128,5.9,10.4,74,0.00,CLR,SKC,0.00,WeatherDisplay:10.37,2013-03-07 15:39:00,
2013-03-07 09:44:00,30.2,22.6,30.28,ESE,117,10.1,15.0,73,0.00,CLR,SKC,0.00,WeatherDisplay:10.37,2013-03-07 15:44:00,
2013-03-07 09:49:00,30.5,22.9,30.28,East,96,8.2,11.5,73,0.00,CLR,SKC,0.00,WeatherDisplay:10.37,2013-03-07 15:49:00,
2013-03-07 09:54:00,30.8,23.2,30.28,ESE,111,6.3,11.5,73,0.00,CLR,SKC,0.00,WeatherDisplay:10.37,2013-03-07 15:54:00,
2013-03-07 09:59:00,31.0,23.4,30.28,ESE,105,7.7,11.5,73,0.00,CLR,SKC,0.00,WeatherDisplay:10.37,2013-03-07 15:59:00,
2013-03-07 10:04:00,31.2,23.5,30.28,SE,140,11.0,12.7,73,0.00,CLR,SKC,0.00,WeatherDisplay:10.37,2013-03-07 16:04:00,
2013-03-07 10:09:00,31.9,24.2,30.27,East,100,5.8,11.5,73,0.00,CLR,SKC,0.00,WeatherDisplay:10.37,2013-03-07 16:09:00,
2013-03-07 10:15:00,32.5,24.1,30.27,SE,138,8.6,10.4,71,0.00,CLR,SKC,0.00,WeatherDisplay:10.37,2013-03-07 16:15:00,
2013-03-07 10:20:00,32.5,24.1,30.27,SE,127,10.2,13.0,71,0.00,CLR,SKC,0.00,WeatherDisplay:10.37,2013-03-07 16:20:00,
2013-03-07 10:25:00,32.5,24.1,30.27,SE,134,8.3,15.0,71,0.00,CLR,SKC,0.00,WeatherDisplay:10.37,2013-03-07 16:25:00,
2013-03-07 10:30:00,32.9,24.5,30.26,SE,127,10.6,13.8,71,0.00,CLR,SKC,0.00,WeatherDisplay:10.37,2013-03-07 16:30:00,
2013-03-07 10:35:00,33.4,25.0,30.26,East,100,10.7,14.0,71,0.00,CLR,SKC,0.00,WeatherDisplay:10.37,2013-03-07 16:35:00,
2013-03-07 10:40:00,33.4,24.7,30.26,ESE,123,8.3,16.0,70,0.00,CLR,SKC,0.00,WeatherDisplay:10.37,2013-03-07 16:40:00,
2013-03-07 10:45:00,33.4,24.7,30.26,ESE,108,14.1,16.1,70,0.00,CLR,SKC,0.00,WeatherDisplay:10.37,2013-03-07 16:45:00,
2013-03-07 10:50:00,33.5,25.1,30.26,SE,134,12.3,13.8,71,0.00,CLR,SKC,0.00,WeatherDisplay:10.37,2013-03-07 16:50:00,
2013-03-07 10:55:00,34.0,25.2,30.26,SE,131,11.8,17.0,70,0.00,CLR,SKC,0.00,WeatherDisplay:10.37,2013-03-07 16:55:00,
2013-03-07 11:00:00,34.1,25.0,30.26,SE,142,14.0,20.0,69,0.00,CLR,SKC,0.00,WeatherDisplay:10.37,2013-03-07 17:00:00,
2013-03-07 11:05:00,34.6,25.5,30.25,ESE,105,9.6,13.8,69,0.00,CLR,SKC,0.00,WeatherDisplay:10.37,2013-03-07 17:05:00,
2013-03-07 11:10:00,35.0,25.5,30.25,SE,127,10.6,17.3,68,0.00,CLR,SKC,0.00,WeatherDisplay:10.37,2013-03-07 17:10:00,
2013-03-07 11:15:00,35.3,25.8,30.25,SE,140,9.0,17.0,68,0.00,CLR,SKC,0.00,WeatherDisplay:10.37,2013-03-07 17:15:00,
2013-03-07 11:20:00,35.9,26.0,30.24,SE,139,15.0,18.0,67,0.00,CLR,SKC,0.00,WeatherDisplay:10.37,2013-03-07 17:20:00,
2013-03-07 11:25:00,35.9,26.4,30.24,SE,129,11.2,16.1,68,0.00,CLR,SKC,0.00,WeatherDisplay:10.37,2013-03-07 17:25:00,
2013-03-07 11:30:00,36.0,26.5,30.23,SE,131,14.4,19.6,68,0.00,CLR,SKC,0.00,WeatherDisplay:10.37,2013-03-07 17:30:00,
2013-03-07 11:35:00,36.2,26.3,30.23,SE,142,12.4,19.6,67,0.00,CLR,SKC,0.00,WeatherDisplay:10.37,2013-03-07 17:35:00,
2013-03-07 11:40:00,36.6,27.0,30.23,ESE,107,9.0,16.1,68,0.00,CLR,SKC,0.00,WeatherDisplay:10.37,2013-03-07 17:40:00,
2013-03-07 11:45:00,37.1,27.2,30.23,SE,127,10.1,16.0,67,0.00,CLR,SKC,0.00,WeatherDisplay:10.37,2013-03-07 17:45:00,
2013-03-07 11:51:00,37.3,27.0,30.23,SE,124,11.1,15.0,66,0.00,CLR,SKC,0.00,WeatherDisplay:10.37,2013-03-07 17:51:00,
2013-03-07 11:56:00,37.8,27.8,30.23,SE,143,6.9,12.0,67,0.00,CLR,SKC,0.00,WeatherDisplay:10.37,2013-03-07 17:56:00,
2013-03-07 12:01:00,38.0,27.6,30.23,ESE,121,9.8,15.0,66,0.00,CLR,SKC,0.00,WeatherDisplay:10.37,2013-03-07 18:01:00,
2013-03-07 12:06:00,38.5,27.7,30.22,SSE,164,8.4,11.5,65,0.00,CLR,SKC,0.00,WeatherDisplay:10.37,2013-03-07 18:06:00,
2013-03-07 12:11:00,39.0,27.8,30.22,ESE,122,8.7,12.7,64,0.00,CLR,SKC,0.00,WeatherDisplay:10.37,2013-03-07 18:11:00,
2013-03-07 12:16:00,38.8,28.0,30.22,SSE,160,9.6,11.5,65,0.00,CLR,SKC,0.00,WeatherDisplay:10.37,2013-03-07 18:16:00,
2013-03-07 12:21:00,38.9,27.8,30.22,SE,143,12.9,15.0,64,0.00,CLR,SKC,0.00,WeatherDisplay:10.37,2013-03-07 18:21:00,
2013-03-07 12:26:00,39.4,27.8,30.21,SSE,150,13.4,19.6,63,0.00,CLR,SKC,0.00,WeatherDisplay:10.37,2013-03-07 18:26:00,
2013-03-07 12:31:00,39.5,27.9,30.21,SE,142,11.3,15.0,63,0.00,CLR,SKC,0.00,WeatherDisplay:10.37,2013-03-07 18:31:00,
2013-03-07 12:36:00,39.9,28.3,30.21,SE,142,13.6,19.6,63,0.00,CLR,SKC,0.00,WeatherDisplay:10.37,2013-03-07 18:36:00,
2013-03-07 12:41:00,40.3,29.1,30.21,SE,143,8.7,12.7,64,0.00,CLR,SKC,0.00,WeatherDisplay:10.37,2013-03-07 18:41:00,
2013-03-07 12:46:00,40.8,28.8,30.20,SE,138,12.9,19.6,62,0.00,CLR,SKC,0.00,WeatherDisplay:10.37,2013-03-07 18:46:00,
2013-03-07 12:51:00,40.8,28.4,30.20,SE,129,9.2,12.7,61,0.00,CLR,SKC,0.00,WeatherDisplay:10.37,2013-03-07 18:51:00,
2013-03-07 12:56:00,41.3,29.3,30.20,ENE,75,7.9,10.4,62,0.00,CLR,SKC,0.00,WeatherDisplay:10.37,2013-03-07 18:56:00,
2013-03-07 13:01:00,41.8,28.9,30.19,ESE,117,10.1,18.4,60,0.00,CLR,SKC,0.00,WeatherDisplay:10.37,2013-03-07 19:01:00,
2013-03-07 13:06:00,42.0,28.7,30.19,SE,129,13.0,16.1,59,0.00,CLR,SKC,0.00,WeatherDisplay:10.37,2013-03-07 19:06:00,
2013-03-07 13:12:00,43.0,30.1,30.18,SSE,148,7.4,10.4,60,0.00,CLR,SKC,0.00,WeatherDisplay:10.37,2013-03-07 19:12:00,
2013-03-07 13:17:00,43.3,29.1,30.18,SE,135,9.5,17.0,57,0.00,CLR,SKC,0.00,WeatherDisplay:10.37,2013-03-07 19:17:00,
2013-03-07 13:22:00,43.2,29.0,30.18,SSE,149,8.3,17.3,57,0.00,CLR,SKC,0.00,WeatherDisplay:10.37,2013-03-07 19:22:00,
2013-03-07 13:27:00,43.9,29.2,30.17,SE,137,11.0,13.8,56,0.00,CLR,SKC,0.00,WeatherDisplay:10.37,2013-03-07 19:27:00,
2013-03-07 13:33:00,43.9,29.2,30.17,SE,131,9.3,16.1,56,0.00,CLR,SKC,0.00,WeatherDisplay:10.37,2013-03-07 19:33:00,
2013-03-07 13:38:00,44.3,29.1,30.17,ESE,116,9.5,15.0,55,0.00,CLR,SKC,0.00,WeatherDisplay:10.37,2013-03-07 19:38:00,
2013-03-07 13:43:00,44.2,29.0,30.16,SE,129,9.7,16.1,55,0.00,CLR,SKC,0.00,WeatherDisplay:10.37,2013-03-07 19:43:00,
2013-03-07 13:48:00,44.4,28.8,30.16,SE,124,10.6,15.0,54,0.00,CLR,SKC,0.00,WeatherDisplay:10.37,2013-03-07 19:48:00,
2013-03-07 13:53:00,44.9,29.7,30.16,ESE,102,8.8,15.0,55,0.00,CLR,SKC,0.00,WeatherDisplay:10.37,2013-03-07 19:53:00,
2013-03-07 13:58:00,45.0,29.8,30.16,ESE,109,8.6,14.0,55,0.00,CLR,SKC,0.00,WeatherDisplay:10.37,2013-03-07 19:58:00,
2013-03-07 14:03:00,45.4,29.7,30.15,SSE,156,10.8,18.4,54,0.00,CLR,SKC,0.00,WeatherDisplay:10.37,2013-03-07 20:03:00,
2013-03-07 14:08:00,45.8,29.2,30.15,SSW,207,11.5,13.8,52,0.00,CLR,SKC,0.00,WeatherDisplay:10.37,2013-03-07 20:08:00,
2013-03-07 14:13:00,46.0,28.9,30.15,ESE,107,11.1,15.0,51,0.00,CLR,SKC,0.00,WeatherDisplay:10.37,2013-03-07 20:13:00,
2013-03-07 14:18:00,46.3,29.1,30.14,SE,127,10.0,15.0,51,0.00,CLR,SKC,0.00,WeatherDisplay:10.37,2013-03-07 20:18:00,
2013-03-07 14:23:00,46.3,29.6,30.15,SE,140,11.0,16.1,52,0.00,CLR,SKC,0.00,WeatherDisplay:10.37,2013-03-07 20:23:00,
2013-03-07 14:28:00,46.2,29.5,30.14,SSE,163,10.6,16.1,52,0.00,CLR,SKC,0.00,WeatherDisplay:10.37,2013-03-07 20:28:00,
2013-03-07 14:34:00,46.5,29.8,30.14,ESE,108,7.5,15.0,52,0.00,CLR,SKC,0.00,WeatherDisplay:10.37,2013-03-07 20:34:00,
2013-03-07 14:39:00,46.6,29.4,30.14,SE,124,13.2,19.6,51,0.00,CLR,SKC,0.00,WeatherDisplay:10.37,2013-03-07 20:39:00,
2013-03-07 14:44:00,46.9,29.7,30.14,ESE,110,7.8,11.5,51,0.00,CLR,SKC,0.00,WeatherDisplay:10.37,2013-03-07 20:44:00,
2013-03-07 14:49:00,47.0,29.8,30.14,SE,125,9.9,11.5,51,0.00,CLR,SKC,0.00,WeatherDisplay:10.37,2013-03-07 20:49:00,
2013-03-07 14:54:00,47.5,29.8,30.14,ESE,110,11.6,15.0,50,0.00,CLR,SKC,0.00,WeatherDisplay:10.37,2013-03-07 20:54:00,
2013-03-07 14:59:00,47.1,29.9,30.14,East,93,11.9,16.1,51,0.00,CLR,SKC,0.00,WeatherDisplay:10.37,2013-03-07 20:59:00,
2013-03-07 15:04:00,47.3,30.1,30.14,SE,125,9.0,13.0,51,0.00,CLR,SKC,0.00,WeatherDisplay:10.37,2013-03-07 21:04:00,
2013-03-07 15:09:00,47.6,29.9,30.14,SE,141,11.9,16.1,50,0.00,CLR,SKC,0.00,WeatherDisplay:10.37,2013-03-07 21:09:00,
2013-03-07 15:14:00,47.6,29.9,30.14,South,172,11.3,19.6,50,0.00,CLR,SKC,0.00,WeatherDisplay:10.37,2013-03-07 21:14:00,
2013-03-07 15:19:00,48.0,30.7,30.14,ESE,114,12.0,12.0,51,0.00,CLR,SKC,0.00,WeatherDisplay:10.37,2013-03-07 21:19:00,
2013-03-07 15:24:00,48.1,30.8,30.14,SE,131,8.4,12.7,51,0.00,CLR,SKC,0.00,WeatherDisplay:10.37,2013-03-07 21:24:00,
2013-03-07 15:29:00,48.3,30.5,30.14,ESE,105,9.5,11.5,50,0.00,CLR,SKC,0.00,WeatherDisplay:10.37,2013-03-07 21:29:00,
2013-03-07 15:34:00,48.4,30.6,30.14,East,92,9.1,13.0,50,0.00,CLR,SKC,0.00,WeatherDisplay:10.37,2013-03-07 21:34:00,
2013-03-07 15:39:00,48.7,30.4,30.14,SE,144,10.2,15.0,49,0.00,CLR,SKC,0.00,WeatherDisplay:10.37,2013-03-07 21:39:00,
2013-03-07 15:44:00,48.8,30.5,30.14,East,81,8.8,12.7,49,0.00,CLR,SKC,0.00,WeatherDisplay:10.37,2013-03-07 21:44:00,
2013-03-07 15:49:00,48.8,30.0,30.14,SE,128,11.5,15.0,48,0.00,CLR,SKC,0.00,WeatherDisplay:10.37,2013-03-07 21:49:00,
2013-03-07 15:54:00,49.0,30.7,30.14,SE,141,7.6,16.1,49,0.00,CLR,SKC,0.00,WeatherDisplay:10.37,2013-03-07 21:54:00,
2013-03-07 15:59:00,48.6,30.3,30.14,ESE,105,9.0,12.7,49,0.00,CLR,SKC,0.00,WeatherDisplay:10.37,2013-03-07 21:59:00,
2013-03-07 16:05:00,48.6,30.3,30.15,SE,139,10.0,13.8,49,0.00,CLR,SKC,0.00,WeatherDisplay:10.37,2013-03-07 22:05:00,
2013-03-07 16:10:00,48.8,30.5,30.15,SE,146,8.6,10.4,49,0.00,CLR,SKC,0.00,WeatherDisplay:10.37,2013-03-07 22:10:00,
2013-03-07 16:15:00,48.9,30.6,30.15,SSE,158,6.0,11.5,49,0.00,CLR,SKC,0.00,WeatherDisplay:10.37,2013-03-07 22:15:00,
2013-03-07 16:20:00,48.8,30.5,30.14,SE,129,8.1,11.5,49,0.00,CLR,SKC,0.00,WeatherDisplay:10.37,2013-03-07 22:20:00,
2013-03-07 16:25:00,48.7,29.9,30.14,ESE,121,10.5,13.8,48,0.00,CLR,SKC,0.00,WeatherDisplay:10.37,2013-03-07 22:25:00,
2013-03-07 16:30:00,48.7,30.4,30.14,East,97,5.4,9.2,49,0.00,CLR,SKC,0.00,WeatherDisplay:10.37,2013-03-07 22:30:00,
2013-03-07 16:35:00,48.7,30.4,30.14,SE,129,8.5,13.0,49,0.00,CLR,SKC,0.00,WeatherDisplay:10.37,2013-03-07 22:35:00,
2013-03-07 16:40:00,48.6,30.3,30.14,SE,129,8.7,12.7,49,0.00,CLR,SKC,0.00,WeatherDisplay:10.37,2013-03-07 22:40:00,
2013-03-07 16:45:00,48.4,30.6,30.14,SSE,156,7.0,13.8,50,0.00,CLR,SKC,0.00,WeatherDisplay:10.37,2013-03-07 22:45:00,
2013-03-07 16:50:00,48.3,30.0,30.15,ESE,120,10.4,15.0,49,0.00,CLR,SKC,0.00,WeatherDisplay:10.37,2013-03-07 22:50:00,
2013-03-07 16:55:00,48.0,30.2,30.14,ESE,104,6.6,11.5,50,0.00,CLR,SKC,0.00,WeatherDisplay:10.37,2013-03-07 22:55:00,
2013-03-07 17:00:00,48.0,30.2,30.14,ESE,120,9.2,15.0,50,0.00,CLR,SKC,0.00,WeatherDisplay:10.37,2013-03-07 23:00:00,
2013-03-07 17:05:00,47.9,30.1,30.14,SSE,155,7.2,11.5,50,0.00,CLR,SKC,0.00,WeatherDisplay:10.37,2013-03-07 23:05:00,
2013-03-07 17:10:00,47.6,30.3,30.14,SE,145,5.9,12.7,51,0.00,CLR,SKC,0.00,WeatherDisplay:10.37,2013-03-07 23:10:00,
2013-03-07 17:15:00,47.6,30.3,30.14,SE,134,10.0,15.0,51,0.00,CLR,SKC,0.00,WeatherDisplay:10.37,2013-03-07 23:15:00,
2013-03-07 17:20:00,47.4,30.2,30.14,SE,131,8.9,12.7,51,0.00,CLR,SKC,0.00,WeatherDisplay:10.37,2013-03-07 23:20:00,
2013-03-07 17:25:00,47.3,30.1,30.14,SE,131,8.9,13.8,51,0.00,CLR,SKC,0.00,WeatherDisplay:10.37,2013-03-07 23:25:00,
2013-03-07 17:30:00,47.3,30.5,30.14,ESE,115,8.3,10.4,52,0.00,CLR,SKC,0.00,WeatherDisplay:10.37,2013-03-07 23:30:00,
2013-03-07 17:35:00,47.2,30.5,30.14,ESE,105,9.2,15.0,52,0.00,CLR,SKC,0.00,WeatherDisplay:10.37,2013-03-07 23:35:00,
2013-03-07 17:40:00,46.7,30.5,30.14,ESE,111,12.9,13.8,53,0.00,CLR,SKC,0.00,WeatherDisplay:10.37,2013-03-07 23:40:00,
2013-03-07 17:45:00,46.3,30.5,30.15,ESE,113,7.8,12.7,54,0.00,CLR,SKC,0.00,WeatherDisplay:10.37,2013-03-07 23:45:00,
2013-03-07 17:50:00,46.0,30.7,30.15,ESE,108,6.0,11.5,55,0.00,CLR,SKC,0.00,WeatherDisplay:10.37,2013-03-07 23:50:00,
2013-03-07 17:56:00,45.7,30.9,30.15,ESE,114,6.8,15.0,56,0.00,CLR,SKC,0.00,WeatherDisplay:10.37,2013-03-07 23:56:00,
2013-03-07 18:01:00,45.3,30.5,30.15,East,89,8.2,11.5,56,0.00,CLR,SKC,0.00,WeatherDisplay:10.37,2013-03-08 00:01:00,
2013-03-07 18:06:00,45.1,30.8,30.15,SE,129,3.3,6.9,57,0.00,CLR,SKC,0.00,WeatherDisplay:10.37,2013-03-08 00:06:00,
2013-03-07 18:11:00,44.8,30.5,30.15,ESE,110,7.8,11.0,57,0.00,CLR,SKC,0.00,WeatherDisplay:10.37,2013-03-08 00:11:00,
2013-03-07 18:16:00,44.4,30.5,30.15,ESE,103,7.4,11.5,58,0.00,CLR,SKC,0.00,WeatherDisplay:10.37,2013-03-08 00:16:00,
2013-03-07 18:21:00,44.1,30.3,30.15,East,84,5.3,9.2,58,0.00,CLR,SKC,0.00,WeatherDisplay:10.37,2013-03-08 00:21:00,
2013-03-07 18:26:00,43.8,30.4,30.15,East,98,5.7,10.4,59,0.00,CLR,SKC,0.00,WeatherDisplay:10.37,2013-03-08 00:26:00,
2013-03-07 18:31:00,43.5,30.1,30.15,SSE,153,5.7,11.5,59,0.00,CLR,SKC,0.00,WeatherDisplay:10.37,2013-03-08 00:31:00,
2013-03-07 18:36:00,43.1,30.1,30.15,ESE,105,9.8,13.8,60,0.00,CLR,SKC,0.00,WeatherDisplay:10.37,2013-03-08 00:36:00,
2013-03-07 18:41:00,42.9,30.0,30.16,ESE,110,7.1,11.5,60,0.00,CLR,SKC,0.00,WeatherDisplay:10.37,2013-03-08 00:41:00,
2013-03-07 18:46:00,42.7,29.8,30.16,SE,133,8.2,11.5,60,0.00,CLR,SKC,0.00,WeatherDisplay:10.37,2013-03-08 00:46:00,
2013-03-07 18:51:00,42.5,29.6,30.16,ESE,117,7.7,10.4,60,0.00,CLR,SKC,0.00,WeatherDisplay:10.37,2013-03-08 00:51:00,
2013-03-07 18:56:00,42.3,29.4,30.17,SE,131,7.8,11.5,60,0.00,CLR,SKC,0.00,WeatherDisplay:10.37,2013-03-08 00:56:00,
2013-03-07 19:01:00,42.2,29.7,30.17,ESE,115,7.8,10.0,61,0.00,CLR,SKC,0.00,WeatherDisplay:10.37,2013-03-08 01:01:00,
2013-03-07 19:06:00,42.0,29.5,30.17,ESE,120,9.4,13.8,61,0.00,CLR,SKC,0.00,WeatherDisplay:10.37,2013-03-08 01:06:00,
2013-03-07 19:11:00,41.8,29.3,30.17,ESE,121,7.4,10.4,61,0.00,CLR,SKC,0.00,WeatherDisplay:10.37,2013-03-08 01:11:00,
2013-03-07 19:16:00,41.6,29.1,30.18,ESE,108,8.4,11.5,61,0.00,CLR,SKC,0.00,WeatherDisplay:10.37,2013-03-08 01:16:00,
2013-03-07 19:21:00,41.4,28.9,30.18,ESE,105,5.4,9.2,61,0.00,CLR,SKC,0.00,WeatherDisplay:10.37,2013-03-08 01:21:00,
2013-03-07 19:26:00,41.2,29.2,30.18,SE,131,6.5,11.5,62,0.00,CLR,SKC,0.00,WeatherDisplay:10.37,2013-03-08 01:26:00,
2013-03-07 19:31:00,41.0,29.0,30.18,ESE,111,4.9,8.0,62,0.00,CLR,SKC,0.00,WeatherDisplay:10.37,2013-03-08 01:31:00,
2013-03-07 19:36:00,40.7,28.7,30.18,ESE,114,5.2,10.4,62,0.00,CLR,SKC,0.00,WeatherDisplay:10.37,2013-03-08 01:36:00,
2013-03-07 19:42:00,40.5,28.9,30.18,ESE,114,7.8,11.5,63,0.00,CLR,SKC,0.00,WeatherDisplay:10.37,2013-03-08 01:42:00,
2013-03-07 19:47:00,40.3,28.7,30.18,ESE,111,8.1,14.0,63,0.00,CLR,SKC,0.00,WeatherDisplay:10.37,2013-03-08 01:47:00,
2013-03-07 19:52:00,40.1,28.9,30.18,ESE,111,9.7,12.0,64,0.00,CLR,SKC,0.00,WeatherDisplay:10.37,2013-03-08 01:52:00,
2013-03-07 19:57:00,39.9,29.1,30.18,ESE,110,7.2,10.4,65,0.00,CLR,SKC,0.00,WeatherDisplay:10.37,2013-03-08 01:57:00,
2013-03-07 20:02:00,39.7,28.9,30.19,ESE,115,9.5,11.5,65,0.00,CLR,SKC,0.00,WeatherDisplay:10.37,2013-03-08 02:02:00,
2013-03-07 20:07:00,39.5,29.1,30.19,ESE,105,10.0,11.5,66,0.00,CLR,SKC,0.00,WeatherDisplay:10.37,2013-03-08 02:07:00,
2013-03-07 20:12:00,39.2,28.8,30.19,East,92,6.8,11.5,66,0.00,CLR,SKC,0.00,WeatherDisplay:10.37,2013-03-08 02:12:00,
2013-03-07 20:17:00,39.0,28.6,30.19,East,100,5.9,10.4,66,0.00,CLR,SKC,0.00,WeatherDisplay:10.37,2013-03-08 02:17:00,
2013-03-07 20:22:00,38.8,28.8,30.19,East,91,7.7,11.5,67,0.00,CLR,SKC,0.00,WeatherDisplay:10.37,2013-03-08 02:22:00,
2013-03-07 20:27:00,38.6,28.6,30.19,ESE,115,8.6,12.7,67,0.00,CLR,SKC,0.00,WeatherDisplay:10.37,2013-03-08 02:27:00,
2013-03-07 20:32:00,38.4,28.8,30.19,East,94,6.3,10.4,68,0.00,CLR,SKC,0.00,WeatherDisplay:10.37,2013-03-08 02:32:00,
2013-03-07 20:37:00,38.2,28.6,30.20,ESE,113,8.0,10.4,68,0.00,CLR,SKC,0.00,WeatherDisplay:10.37,2013-03-08 02:37:00,
2013-03-07 20:42:00,38.0,28.4,30.20,ESE,108,7.9,11.5,68,0.00,CLR,SKC,0.00,WeatherDisplay:10.37,2013-03-08 02:42:00,
2013-03-07 20:47:00,37.9,28.3,30.20,ESE,114,7.9,9.2,68,0.00,CLR,SKC,0.00,WeatherDisplay:10.37,2013-03-08 02:47:00,
2013-03-07 20:52:00,37.7,28.1,30.20,SE,131,4.5,9.2,68,0.00,CLR,SKC,0.00,WeatherDisplay:10.37,2013-03-08 02:52:00,
2013-03-07 20:57:00,37.5,28.2,30.20,East,94,5.7,6.9,69,0.00,CLR,SKC,0.00,WeatherDisplay:10.37,2013-03-08 02:57:00,
2013-03-07 21:02:00,37.3,28.1,30.20,ESE,122,8.1,11.5,69,0.00,CLR,SKC,0.00,WeatherDisplay:10.37,2013-03-08 03:02:00,
2013-03-07 21:07:00,37.1,28.2,30.20,SE,126,6.5,10.0,70,0.00,CLR,SKC,0.00,WeatherDisplay:10.37,2013-03-08 03:07:00,
2013-03-07 21:12:00,37.0,28.1,30.20,East,91,7.6,9.2,70,0.00,CLR,SKC,0.00,WeatherDisplay:10.37,2013-03-08 03:12:00,
2013-03-07 21:17:00,36.8,27.9,30.20,ESE,114,7.6,11.0,70,0.00,CLR,SKC,0.00,WeatherDisplay:10.37,2013-03-08 03:17:00,
2013-03-07 21:22:00,36.6,28.1,30.20,ESE,120,7.5,10.4,71,0.00,CLR,SKC,0.00,WeatherDisplay:10.37,2013-03-08 03:22:00,
2013-03-07 21:27:00,36.4,27.9,30.20,ESE,114,7.9,11.5,71,0.00,CLR,SKC,0.00,WeatherDisplay:10.37,2013-03-08 03:27:00,
2013-03-07 21:33:00,36.3,27.8,30.20,ESE,110,5.7,8.1,71,0.00,CLR,SKC,0.00,WeatherDisplay:10.37,2013-03-08 03:33:00,
2013-03-07 21:38:00,36.2,27.7,30.21,ESE,111,7.0,15.0,71,0.00,CLR,SKC,0.00,WeatherDisplay:10.37,2013-03-08 03:38:00,
2013-03-07 21:43:00,36.1,27.9,30.21,SE,129,5.6,9.2,72,0.00,CLR,SKC,0.00,WeatherDisplay:10.37,2013-03-08 03:43:00,
2013-03-07 21:48:00,36.0,27.8,30.21,East,94,5.2,12.7,72,0.00,CLR,SKC,0.00,WeatherDisplay:10.37,2013-03-08 03:48:00,
2013-03-07 21:53:00,35.9,27.7,30.21,ESE,114,7.0,11.5,72,0.00,CLR,SKC,0.00,WeatherDisplay:10.37,2013-03-08 03:53:00,
2013-03-07 21:59:00,35.8,27.7,30.22,SE,125,8.4,11.5,72,0.00,CLR,SKC,0.00,WeatherDisplay:10.37,2013-03-08 03:59:00,
2013-03-07 22:04:00,35.7,27.6,30.22,ESE,115,5.3,10.4,72,0.00,CLR,SKC,0.00,WeatherDisplay:10.37,2013-03-08 04:04:00,
2013-03-07 22:09:00,35.7,27.6,30.22,ESE,121,7.3,11.5,72,0.00,CLR,SKC,0.00,WeatherDisplay:10.37,2013-03-08 04:09:00,
2013-03-07 22:14:00,35.7,27.6,30.22,ESE,115,5.5,10.4,72,0.00,CLR,SKC,0.00,WeatherDisplay:10.37,2013-03-08 04:14:00,
2013-03-07 22:19:00,35.5,27.4,30.22,ESE,105,6.3,8.1,72,0.00,CLR,SKC,0.00,WeatherDisplay:10.37,2013-03-08 04:19:00,
2013-03-07 22:24:00,35.5,27.4,30.22,ESE,110,5.0,10.4,72,0.00,CLR,SKC,0.00,WeatherDisplay:10.37,2013-03-08 04:24:00,
2013-03-07 22:29:00,35.3,27.5,30.23,SE,129,4.1,5.8,73,0.00,CLR,SKC,0.00,WeatherDisplay:10.37,2013-03-08 04:29:00,
2013-03-07 22:34:00,35.2,27.4,30.23,East,84,4.6,8.0,73,0.00,CLR,SKC,0.00,WeatherDisplay:10.37,2013-03-08 04:34:00,
2013-03-07 22:39:00,35.1,27.3,30.23,ESE,112,6.5,6.9,73,0.00,CLR,SKC,0.00,WeatherDisplay:10.37,2013-03-08 04:39:00,
2013-03-07 22:44:00,35.0,27.2,30.23,SE,127,7.3,10.4,73,0.00,CLR,SKC,0.00,WeatherDisplay:10.37,2013-03-08 04:44:00,
2013-03-07 22:49:00,34.8,27.4,30.23,ESE,104,7.6,11.5,74,0.00,CLR,SKC,0.00,WeatherDisplay:10.37,2013-03-08 04:49:00,
2013-03-07 22:54:00,34.7,27.6,30.23,ESE,113,7.8,11.5,75,0.00,CLR,SKC,0.00,WeatherDisplay:10.37,2013-03-08 04:54:00,
2013-03-07 22:59:00,34.5,27.4,30.23,ESE,105,6.0,9.2,75,0.00,CLR,SKC,0.00,WeatherDisplay:10.37,2013-03-08 04:59:00,
2013-03-07 23:00:00,34.5,27.4,30.23,ESE,107,6.0,12.0,75,0.00,CLR,SKC,0.00,WeatherDisplay:10.37,2013-03-08 05:00:00,
2013-03-07 23:01:00,34.5,27.4,30.23,ESE,108,4.4,5.8,75,0.00,CLR,SKC,0.00,WeatherDisplay:10.37,2013-03-08 05:01:00,
2013-03-07 23:02:00,34.5,27.4,30.23,ENE,64,5.4,7.0,75,0.00,CLR,SKC,0.00,WeatherDisplay:10.37,2013-03-08 05:02:00,
2013-03-07 23:07:00,34.4,27.3,30.22,East,94,6.8,9.2,75,0.00,CLR,SKC,0.00,WeatherDisplay:10.37,2013-03-08 05:07:00,
2013-03-07 23:12:00,34.3,27.2,30.23,ESE,111,6.6,9.2,75,0.00,CLR,SKC,0.00,WeatherDisplay:10.37,2013-03-08 05:12:00,
2013-03-07 23:17:00,34.2,27.4,30.23,ESE,115,5.6,9.2,76,0.00,CLR,SKC,0.00,WeatherDisplay:10.37,2013-03-08 05:17:00,
2013-03-07 23:22:00,34.1,27.3,30.23,SE,131,5.0,6.0,76,0.00,CLR,SKC,0.00,WeatherDisplay:10.37,2013-03-08 05:22:00,
2013-03-07 23:27:00,34.1,27.3,30.22,SE,131,7.7,10.4,76,0.00,CLR,SKC,0.00,WeatherDisplay:10.37,2013-03-08 05:27:00,
2013-03-07 23:32:00,34.0,27.2,30.23,SE,131,8.0,11.5,76,0.00,CLR,SKC,0.00,WeatherDisplay:10.37,2013-03-08 05:32:00,
2013-03-07 23:37:00,33.9,27.1,30.22,SE,131,4.0,10.0,76,0.00,CLR,SKC,0.00,WeatherDisplay:10.37,2013-03-08 05:37:00,
2013-03-07 23:42:00,33.8,27.0,30.22,SE,132,5.3,9.2,76,0.00,CLR,SKC,0.00,WeatherDisplay:10.37,2013-03-08 05:42:00,
2013-03-07 23:47:00,33.7,26.9,30.23,SE,132,7.4,11.5,76,0.00,CLR,SKC,0.00,WeatherDisplay:10.37,2013-03-08 05:47:00,
2013-03-07 23:52:00,33.7,26.9,30.22,ESE,105,5.5,9.2,76,0.00,CLR,SKC,0.00,WeatherDisplay:10.37,2013-03-08 05:52:00,
2013-03-07 23:57:00,33.7,26.9,30.22,ESE,109,9.2,12.0,76,0.00,CLR,SKC,0.00,WeatherDisplay:10.37,2013-03-08 05:57:00,